Hourly Data Report for September 19, 2020

TORONTO CITY
ONTARIO
Current Station Operator: ECCC - MSC

43°40'00.000" N
79°24'00.000" W
112.50 m
6158355
71508
XTO

Download Data

Hourly Data (September 2020)
Hourly Data Report for September 19, 2020
TIME
LST
Temp Definition
°C
Dew Point Definition
°C
Rel Hum Definition
%
Precip. Amount Definition
mm

Wind Dir Definition
10's deg

Wind Spd Definition
km/h
Visibility Definition
km
Stn Press Definition
kPa
Hmdx Definition


Wind Chill Definition


Weather Definition


00:00 8.4 -0.6 53 0.0       101.45     LegendNANA
01:00 8.2 -1.7 50 0.0       101.51     LegendNANA
02:00 7.7 -1.7 51 0.0       101.53     LegendNANA
03:00 7.3 -2.0 52 0.0       101.53     LegendNANA
04:00 7.3 -2.5 50 0.0       101.53     LegendNANA
05:00 6.6 -2.3 53 0.0       101.57     LegendNANA
06:00 6.6 -2.6 52 0.0       101.59     LegendNANA
07:00 6.7 -2.3 53 0.0       101.63     LegendNANA
08:00 8.8 -1.7 48 0.0       101.65     LegendNANA
09:00 11.0 -4.2 34 0.0       101.72     LegendNANA
10:00 11.6 -5.1 31 0.0       101.75     LegendNANA
11:00 12.5 -4.1 31 0.0       101.74     LegendNANA
12:00 13.2 -3.0 32 0.0       101.73     LegendNANA
13:00 14.1 -2.5 32 0.3       101.70     LegendNANA
14:00 13.6 -2.9 32 0.3       101.66     LegendNANA
15:00 13.3 -3.1 32 0.3       101.61     LegendNANA
16:00 12.6 -2.7 34 0.0       101.60     LegendNANA
17:00 12.3 -1.6 38 0.0       101.59     LegendNANA
18:00 12.0 -0.7 41 0.0       101.59     LegendNANA
19:00 12.1 -0.6 41 0.0       101.58     LegendNANA
20:00 12.3 -1.5 38 0.0       101.59     LegendNANA
21:00 12.2 -1.1 40 0.0       101.64     LegendNANA
22:00 12.4 -0.7 40 0.0       101.68     LegendNANA
23:00 12.1 -1.5 39 0.0       101.73     LegendNANA

Notes on Data Quality.

Legend

  • E = Estimated
  • M = Missing
  • NA = Not Available*
  • [empty] = Indicates an unobserved value
Date modified: